| time (UTC) | temp F | wind direction | speed MPH | gust MPH | rain 1hr in | rain 24hr in | rain mn in | humidity % | barometer mb |
| 20260507010024 | 78 | 140 | 2.0 | 7.0 | 0.00 | 0.00 | 0.00 | 21 | 1010.1 |
| 20260507005524 | 78 | 136 | 5.0 | 7.0 | 0.00 | 0.00 | 0.00 | 21 | 1010.1 |
| 20260507005022 | 78 | 147 | 1.0 | 8.0 | 0.00 | 0.00 | 0.00 | 21 | 1010.1 |
| 20260507004524 | 78 | 126 | 4.0 | 8.0 | 0.00 | 0.00 | 0.00 | 21 | 1010.2 |
| 20260507004025 | 78 | 100 | 1.0 | 6.0 | 0.00 | 0.00 | 0.00 | 21 | 1010.1 |
| 20260507003522 | 78 | 93 | 1.0 | 7.0 | 0.00 | 0.00 | 0.00 | 21 | 1010.0 |
| 20260507003022 | 78 | 98 | 2.0 | 11.0 | 0.00 | 0.00 | 0.00 | 21 | 1010.0 |
| 20260507002521 | 78 | 132 | 3.0 | 11.0 | 0.00 | 0.00 | 0.00 | 21 | 1010.0 |
| 20260507002021 | 78 | 154 | 0.0 | 7.0 | 0.00 | 0.00 | 0.00 | 21 | 1010.1 |
| 20260507001526 | 79 | 90 | 1.0 | 6.0 | 0.00 | 0.00 | 0.00 | 21 | 1010.1 |
| 20260507001020 | 79 | 56 | 1.0 | 10.0 | 0.00 | 0.00 | 0.00 | 21 | 1010.0 |
| 20260507000520 | 79 | 67 | 3.0 | 10.0 | 0.00 | 0.00 | 0.00 | 21 | 1010.0 |
| 20260507000030 | 79 | 85 | 2.0 | 7.0 | 0.00 | 0.00 | 0.00 | 21 | 1010.0 |
| 20260506235519 | 79 | 137 | 1.0 | 8.0 | 0.00 | 0.00 | 0.00 | 21 | 1010.0 |
| 20260506235018 | 78 | 126 | 3.0 | 8.0 | 0.00 | 0.00 | 0.00 | 21 | 1010.0 |
| 20260506234518 | 78 | 85 | 2.0 | 9.0 | 0.00 | 0.00 | 0.00 | 21 | 1009.9 |
| 20260506234017 | 78 | 123 | 3.0 | 9.0 | 0.00 | 0.00 | 0.00 | 21 | 1010.0 |
| 20260506233516 | 79 | 141 | 3.0 | 9.0 | 0.00 | 0.00 | 0.00 | 21 | 1010.0 |
| 20260506233016 | 79 | 119 | 2.0 | 7.0 | 0.00 | 0.00 | 0.00 | 21 | 1010.0 |
| 20260506232515 | 79 | 190 | 0.0 | 4.0 | 0.00 | 0.00 | 0.00 | 21 | 1010.2 |
| 20260506232015 | 79 | 202 | 1.0 | 6.0 | 0.00 | 0.00 | 0.00 | 21 | 1010.2 |
| 20260506231514 | 78 | 110 | 0.0 | 6.0 | 0.00 | 0.00 | 0.00 | 21 | 1010.3 |
| 20260506231012 | 79 | 119 | 1.0 | 7.0 | 0.00 | 0.00 | 0.00 | 22 | 1010.4 |
| 20260506230512 | 78 | 142 | 1.0 | 8.0 | 0.00 | 0.00 | 0.00 | 22 | 1010.4 |
| 20260506230012 | 78 | 142 | 4.0 | 12.0 | 0.00 | 0.00 | 0.00 | 22 | 1010.4 |
| 20260506225515 | 78 | 111 | 6.0 | 12.0 | 0.00 | 0.00 | 0.00 | 22 | 1010.5 |
| 20260506225010 | 78 | 125 | 3.0 | 10.0 | 0.00 | 0.00 | 0.00 | 22 | 1010.6 |
| 20260506224510 | 78 | 131 | 3.0 | 9.0 | 0.00 | 0.00 | 0.00 | 23 | 1010.6 |
| 20260506224009 | 77 | 162 | 2.0 | 11.0 | 0.00 | 0.00 | 0.00 | 23 | 1010.7 |
| 20260506223509 | 78 | 84 | 4.0 | 11.0 | 0.00 | 0.00 | 0.00 | 23 | 1010.8 |
| 20260506223008 | 78 | 94 | 3.0 | 10.0 | 0.00 | 0.00 | 0.00 | 22 | 1010.7 |
| 20260506222508 | 78 | 136 | 5.0 | 10.0 | 0.00 | 0.00 | 0.00 | 22 | 1010.8 |
| 20260506222008 | 77 | 100 | 4.0 | 10.0 | 0.00 | 0.00 | 0.00 | 23 | 1010.9 |
| 20260506221507 | 77 | 99 | 1.0 | 12.0 | 0.00 | 0.00 | 0.00 | 23 | 1011.0 |
| 20260506221009 | 77 | 55 | 4.0 | 12.0 | 0.00 | 0.00 | 0.00 | 23 | 1011.1 |
| 20260506220508 | 78 | 55 | 4.0 | 9.0 | 0.00 | 0.00 | 0.00 | 23 | 1011.2 |
| 20260506220015 | 77 | 146 | 2.0 | 10.0 | 0.00 | 0.00 | 0.00 | 23 | 1011.3 |
| 20260506215507 | 77 | 139 | 6.0 | 10.0 | 0.00 | 0.00 | 0.00 | 23 | 1011.4 |
| 20260506215005 | 77 | 67 | 2.0 | 11.0 | 0.00 | 0.00 | 0.00 | 23 | 1011.4 |
| 20260506214505 | 77 | 92 | 5.0 | 11.0 | 0.00 | 0.00 | 0.00 | 23 | 1011.5 |
| 20260506214004 | 77 | 142 | 5.0 | 11.0 | 0.00 | 0.00 | 0.00 | 23 | 1011.6 |
| 20260506213602 | 77 | 94 | 3.0 | 10.0 | 0.00 | 0.00 | 0.00 | 23 | 1011.6 |
| 20260506213002 | 77 | 137 | 2.0 | 10.0 | 0.00 | 0.00 | 0.00 | 23 | 1011.6 |
| 20260506212501 | 78 | 89 | 1.0 | 8.0 | 0.00 | 0.00 | 0.00 | 23 | 1011.7 |
| 20260506212001 | 77 | 113 | 3.0 | 9.0 | 0.00 | 0.00 | 0.00 | 23 | 1011.8 |
| 20260506211600 | 77 | 118 | 3.0 | 9.0 | 0.00 | 0.00 | 0.00 | 23 | 1011.8 |
| 20260506211502 | 77 | 143 | 4.0 | 11.0 | 0.00 | 0.00 | 0.00 | 23 | 1011.7 |
| 20260506211100 | 77 | 11 | 3.0 | 11.0 | 0.00 | 0.00 | 0.00 | 23 | 1011.8 |
| 20260506210600 | 77 | 62 | 3.0 | 11.0 | 0.00 | 0.00 | 0.00 | 23 | 1011.8 |
| 20260506210059 | 77 | 135 | 6.0 | 11.0 | 0.00 | 0.00 | 0.00 | 23 | 1011.9 |
| 20260506205558 | 77 | 323 | 2.0 | 10.0 | 0.00 | 0.00 | 0.00 | 23 | 1011.9 |
| 20260506205057 | 76 | 286 | 3.0 | 10.0 | 0.00 | 0.00 | 0.00 | 24 | 1012.0 |
| 20260506204557 | 76 | 355 | 1.0 | 6.0 | 0.00 | 0.00 | 0.00 | 24 | 1012.1 |
| 20260506204056 | 76 | 360 | 1.0 | 9.0 | 0.00 | 0.00 | 0.00 | 24 | 1012.1 |
| 20260506203600 | 76 | 84 | 3.0 | 12.0 | 0.00 | 0.00 | 0.00 | 24 | 1012.1 |
| 20260506203056 | 76 | 103 | 2.0 | 12.0 | 0.00 | 0.00 | 0.00 | 24 | 1012.2 |
| 20260506202557 | 76 | 163 | 4.0 | 10.0 | 0.00 | 0.00 | 0.00 | 25 | 1012.1 |
| 20260506202055 | 75 | 92 | 2.0 | 10.0 | 0.00 | 0.00 | 0.00 | 25 | 1012.2 |
| 20260506201554 | 75 | 39 | 2.0 | 10.0 | 0.00 | 0.00 | 0.00 | 25 | 1012.3 |
| 20260506201055 | 75 | 5 | 3.0 | 10.0 | 0.00 | 0.00 | 0.00 | 25 | 1012.3 |
| 20260506200554 | 75 | 135 | 4.0 | 11.0 | 0.00 | 0.00 | 0.00 | 26 | 1012.4 |
| 20260506200051 | 75 | 103 | 3.0 | 11.0 | 0.00 | 0.00 | 0.00 | 26 | 1012.5 |
| 20260506195551 | 74 | 74 | 2.0 | 7.0 | 0.00 | 0.00 | 0.00 | 26 | 1012.6 |
| 20260506195053 | 74 | 85 | 4.0 | 12.0 | 0.00 | 0.00 | 0.00 | 26 | 1012.7 |
| 20260506194556 | 74 | 153 | 1.0 | 12.0 | 0.00 | 0.00 | 0.00 | 26 | 1012.6 |
| 20260506194054 | 75 | 113 | 3.0 | 11.0 | 0.00 | 0.00 | 0.00 | 26 | 1012.6 |
| 20260506193550 | 74 | 146 | 3.0 | 9.0 | 0.00 | 0.00 | 0.00 | 27 | 1012.6 |
| 20260506193057 | 74 | 155 | 1.0 | 6.0 | 0.00 | 0.00 | 0.00 | 26 | 1012.7 |
| 20260506192549 | 74 | 92 | 0.0 | 11.0 | 0.00 | 0.00 | 0.00 | 27 | 1012.8 |
| 20260506192051 | 74 | 64 | 5.0 | 12.0 | 0.00 | 0.00 | 0.00 | 27 | 1012.9 |
| 20260506191549 | 74 | 38 | 6.0 | 12.0 | 0.00 | 0.00 | 0.00 | 26 | 1012.9 |
| 20260506191048 | 74 | 67 | 3.0 | 10.0 | 0.00 | 0.00 | 0.00 | 27 | 1012.9 |
| 20260506190547 | 73 | 81 | 4.0 | 10.0 | 0.00 | 0.00 | 0.00 | 27 | 1012.9 |
| 20260506190050 | 73 | 58 | 4.0 | 12.0 | 0.00 | 0.00 | 0.00 | 27 | 1013.0 |
| 20260506185546 | 73 | 65 | 2.0 | 12.0 | 0.00 | 0.00 | 0.00 | 27 | 1013.0 |
| 20260506185046 | 73 | 87 | 1.0 | 13.0 | 0.00 | 0.00 | 0.00 | 27 | 1013.0 |
| 20260506184546 | 73 | 94 | 5.0 | 13.0 | 0.00 | 0.00 | 0.00 | 27 | 1013.1 |
| 20260506184047 | 73 | 76 | 3.0 | 8.0 | 0.00 | 0.00 | 0.00 | 27 | 1013.2 |
| 20260506183544 | 72 | 85 | 2.0 | 11.0 | 0.00 | 0.00 | 0.00 | 28 | 1013.1 |
| 20260506183045 | 72 | 142 | 6.0 | 11.0 | 0.00 | 0.00 | 0.00 | 28 | 1013.1 |
| 20260506182544 | 72 | 148 | 4.0 | 11.0 | 0.00 | 0.00 | 0.00 | 28 | 1013.2 |
| 20260506182043 | 72 | 87 | 4.0 | 11.0 | 0.00 | 0.00 | 0.00 | 28 | 1013.2 |
| 20260506181543 | 72 | 141 | 4.0 | 11.0 | 0.00 | 0.00 | 0.00 | 28 | 1013.2 |
| 20260506181042 | 72 | 150 | 4.0 | 11.0 | 0.00 | 0.00 | 0.00 | 28 | 1013.2 |
| 20260506180542 | 72 | 142 | 5.0 | 10.0 | 0.00 | 0.00 | 0.00 | 29 | 1013.2 |
| 20260506180050 | 72 | 165 | 3.0 | 9.0 | 0.00 | 0.00 | 0.00 | 28 | 1013.3 |
| 20260506175539 | 71 | 78 | 3.0 | 11.0 | 0.00 | 0.00 | 0.00 | 29 | 1013.3 |
| 20260506175038 | 71 | 44 | 4.0 | 12.0 | 0.00 | 0.00 | 0.00 | 30 | 1013.3 |
| 20260506174542 | 71 | 136 | 4.0 | 13.0 | 0.00 | 0.00 | 0.00 | 29 | 1013.3 |
| 20260506174037 | 71 | 96 | 4.0 | 13.0 | 0.00 | 0.00 | 0.00 | 29 | 1013.2 |
| 20260506173537 | 70 | 97 | 2.0 | 12.0 | 0.00 | 0.00 | 0.00 | 29 | 1013.3 |
| 20260506173039 | 71 | 92 | 4.0 | 10.0 | 0.00 | 0.00 | 0.00 | 29 | 1013.2 |
| 20260506172536 | 70 | 64 | 2.0 | 9.0 | 0.00 | 0.00 | 0.00 | 30 | 1013.2 |
| 20260506172036 | 70 | 95 | 5.0 | 10.0 | 0.00 | 0.00 | 0.00 | 30 | 1013.2 |
| 20260506171537 | 70 | 103 | 1.0 | 10.0 | 0.00 | 0.00 | 0.00 | 29 | 1013.2 |
| 20260506171036 | 70 | 121 | 3.0 | 11.0 | 0.00 | 0.00 | 0.00 | 29 | 1013.1 |
| 20260506170534 | 70 | 142 | 5.0 | 11.0 | 0.00 | 0.00 | 0.00 | 30 | 1013.0 |
| 20260506170033 | 69 | 129 | 4.0 | 10.0 | 0.00 | 0.00 | 0.00 | 30 | 1013.0 |
| 20260506165533 | 70 | 98 | 3.0 | 9.0 | 0.00 | 0.00 | 0.00 | 29 | 1013.0 |
| 20260506165032 | 69 | 111 | 4.0 | 9.0 | 0.00 | 0.00 | 0.00 | 30 | 1013.0 |
| 20260506164532 | 69 | 130 | 3.0 | 8.0 | 0.00 | 0.00 | 0.00 | 30 | 1012.9 |
| 20260506164032 | 69 | 94 | 3.0 | 9.0 | 0.00 | 0.00 | 0.00 | 30 | 1013.0 |
| 20260506163530 | 69 | 59 | 3.0 | 9.0 | 0.00 | 0.00 | 0.00 | 30 | 1012.9 |
| 20260506163053 | 68 | 134 | 4.0 | 9.0 | 0.00 | 0.00 | 0.00 | 30 | 1013.0 |
| 20260506162529 | 69 | 86 | 4.0 | 9.0 | 0.00 | 0.00 | 0.00 | 30 | 1012.9 |
| 20260506162031 | 68 | 89 | 5.0 | 10.0 | 0.00 | 0.00 | 0.00 | 30 | 1012.9 |
| 20260506161527 | 68 | 72 | 5.0 | 9.0 | 0.00 | 0.00 | 0.00 | 30 | 1012.9 |
| 20260506161025 | 68 | 78 | 4.0 | 9.0 | 0.00 | 0.00 | 0.00 | 30 | 1012.8 |
| 20260506160525 | 67 | 103 | 4.0 | 9.0 | 0.00 | 0.00 | 0.00 | 31 | 1012.9 |
| 20260506160025 | 67 | 90 | 5.0 | 10.0 | 0.00 | 0.00 | 0.00 | 31 | 1012.9 |
| 20260506155523 | 67 | 109 | 3.0 | 10.0 | 0.00 | 0.00 | 0.00 | 30 | 1013.0 |
| 20260506155023 | 67 | 104 | 3.0 | 8.0 | 0.00 | 0.00 | 0.00 | 30 | 1012.9 |
| 20260506154522 | 67 | 53 | 3.0 | 9.0 | 0.00 | 0.00 | 0.00 | 30 | 1012.9 |
| 20260506154026 | 67 | 86 | 2.0 | 9.0 | 0.00 | 0.00 | 0.00 | 30 | 1012.9 |
| 20260506153522 | 67 | 82 | 4.0 | 9.0 | 0.00 | 0.00 | 0.00 | 30 | 1012.8 |
| 20260506153020 | 67 | 92 | 2.0 | 7.0 | 0.00 | 0.00 | 0.00 | 30 | 1012.7 |
| 20260506152519 | 67 | 146 | 2.0 | 6.0 | 0.00 | 0.00 | 0.00 | 31 | 1012.8 |
| 20260506152023 | 66 | 154 | 0.0 | 6.0 | 0.00 | 0.00 | 0.00 | 32 | 1012.8 |
| 20260506151518 | 66 | 238 | 1.0 | 4.0 | 0.00 | 0.00 | 0.00 | 31 | 1012.7 |
| 20260506151017 | 66 | 240 | 1.0 | 4.0 | 0.00 | 0.00 | 0.00 | 31 | 1012.7 |
| 20260506150517 | 66 | 246 | 1.0 | 4.0 | 0.00 | 0.00 | 0.00 | 31 | 1012.7 |
| 20260506150016 | 66 | 247 | 0.0 | 3.0 | 0.00 | 0.00 | 0.00 | 31 | 1012.8 |
| 20260506145520 | 66 | 247 | 0.0 | 3.0 | 0.00 | 0.00 | 0.00 | 31 | 1012.7 |
| 20260506145015 | 65 | 248 | 0.0 | 2.0 | 0.00 | 0.00 | 0.00 | 32 | 1012.7 |
| 20260506144515 | 65 | 247 | 0.0 | 3.0 | 0.00 | 0.00 | 0.00 | 32 | 1012.7 |
| 20260506144015 | 64 | 247 | 1.0 | 3.0 | 0.00 | 0.00 | 0.00 | 32 | 1012.6 |
| 20260506143517 | 64 | 248 | 1.0 | 3.0 | 0.00 | 0.00 | 0.00 | 32 | 1012.5 |
| 20260506143014 | 65 | 248 | 0.0 | 2.0 | 0.00 | 0.00 | 0.00 | 32 | 1012.5 |
| 20260506142512 | 65 | 248 | 0.0 | 2.0 | 0.00 | 0.00 | 0.00 | 31 | 1012.4 |
| 20260506142013 | 65 | 248 | 0.0 | 0.0 | 0.00 | 0.00 | 0.00 | 31 | 1012.4 |
| 20260506141513 | 65 | 248 | 0.0 | 0.0 | 0.00 | 0.00 | 0.00 | 31 | 1012.4 |
| 20260506141012 | 65 | 248 | 0.0 | 1.0 | 0.00 | 0.00 | 0.00 | 31 | 1012.3 |
| 20260506140511 | 65 | 248 | 0.0 | 1.0 | 0.00 | 0.00 | 0.00 | 30 | 1012.3 |
| 20260506140010 | 66 | 248 | 0.0 | 0.0 | 0.00 | 0.00 | 0.00 | 30 | 1012.2 |
| 20260506135510 | 66 | 248 | 0.0 | 0.0 | 0.00 | 0.00 | 0.00 | 30 | 1012.3 |
| 20260506135011 | 65 | 248 | 0.0 | 0.0 | 0.00 | 0.00 | 0.00 | 30 | 1012.2 |
| 20260506134507 | 64 | 248 | 0.0 | 0.0 | 0.00 | 0.00 | 0.00 | 31 | 1012.1 |
| 20260506134009 | 63 | 248 | 0.0 | 0.0 | 0.00 | 0.00 | 0.00 | 32 | 1012.0 |
| 20260506133503 | 62 | 248 | 0.0 | 0.0 | 0.00 | 0.00 | 0.00 | 33 | 1012.0 |
| 20260506133003 | 61 | 248 | 0.0 | 1.0 | 0.00 | 0.00 | 0.00 | 33 | 1011.8 |
| 20260506132502 | 61 | 248 | 0.0 | 1.0 | 0.00 | 0.00 | 0.00 | 34 | 1011.8 |
| 20260506132002 | 61 | 248 | 0.0 | 2.0 | 0.00 | 0.00 | 0.00 | 34 | 1011.7 |
| 20260506131502 | 60 | 248 | 0.0 | 3.0 | 0.00 | 0.00 | 0.00 | 34 | 1011.7 |
| 20260506131002 | 60 | 248 | 0.0 | 3.0 | 0.00 | 0.00 | 0.00 | 34 | 1011.6 |
| 20260506130503 | 60 | 248 | 0.0 | 3.0 | 0.00 | 0.00 | 0.00 | 34 | 1011.5 |
| 20260506125559 | 59 | 248 | 0.0 | 2.0 | 0.00 | 0.00 | 0.00 | 35 | 1011.4 |
| 20260506125101 | 59 | 248 | 0.0 | 2.0 | 0.00 | 0.00 | 0.00 | 35 | 1011.3 |
| 20260506124558 | 59 | 248 | 0.0 | 2.0 | 0.00 | 0.00 | 0.00 | 35 | 1011.2 |
| 20260506124057 | 59 | 248 | 0.0 | 0.0 | 0.00 | 0.00 | 0.00 | 35 | 1011.2 |
| 20260506123556 | 59 | 248 | 0.0 | 2.0 | 0.00 | 0.00 | 0.00 | 35 | 1011.1 |
| 20260506123056 | 59 | 248 | 0.0 | 2.0 | 0.00 | 0.00 | 0.00 | 35 | 1011.1 |
| 20260506122556 | 59 | 248 | 0.0 | 1.0 | 0.00 | 0.00 | 0.00 | 35 | 1011.0 |
| 20260506122055 | 59 | 248 | 0.0 | 3.0 | 0.00 | 0.00 | 0.00 | 35 | 1011.0 |
| 20260506121554 | 59 | 248 | 0.0 | 3.0 | 0.00 | 0.00 | 0.00 | 35 | 1011.0 |
| 20260506121054 | 59 | 248 | 0.0 | 3.0 | 0.00 | 0.00 | 0.00 | 35 | 1010.9 |
| 20260506120554 | 59 | 248 | 0.0 | 3.0 | 0.00 | 0.00 | 0.00 | 35 | 1011.0 |
| 20260506120059 | 59 | 248 | 0.0 | 4.0 | 0.00 | 0.00 | 0.00 | 35 | 1010.9 |
| 20260506115554 | 59 | 247 | 0.0 | 4.0 | 0.00 | 0.00 | 0.00 | 35 | 1010.9 |
| 20260506115052 | 59 | 247 | 0.0 | 3.0 | 0.00 | 0.00 | 0.00 | 35 | 1010.9 |
| 20260506114559 | 59 | 247 | 0.0 | 3.0 | 0.00 | 0.00 | 0.00 | 35 | 1010.9 |
| 20260506114056 | 59 | 247 | 0.0 | 3.0 | 0.00 | 0.00 | 0.00 | 35 | 1010.9 |
| 20260506113551 | 59 | 247 | 0.0 | 3.0 | 0.00 | 0.00 | 0.00 | 35 | 1010.8 |
| 20260506113053 | 59 | 247 | 0.0 | 2.0 | 0.00 | 0.00 | 0.00 | 35 | 1010.8 |
| 20260506112552 | 59 | 247 | 0.0 | 1.0 | 0.00 | 0.00 | 0.00 | 35 | 1010.8 |
| 20260506112051 | 59 | 247 | 0.0 | 3.0 | 0.00 | 0.00 | 0.00 | 35 | 1010.7 |
| 20260506111549 | 59 | 247 | 0.0 | 3.0 | 0.00 | 0.00 | 0.00 | 34 | 1010.7 |
| 20260506111048 | 60 | 247 | 0.0 | 2.0 | 0.00 | 0.00 | 0.00 | 34 | 1010.7 |
| 20260506110548 | 60 | 247 | 0.0 | 1.0 | 0.00 | 0.00 | 0.00 | 33 | 1010.7 |
| 20260506110055 | 60 | 247 | 0.0 | 2.0 | 0.00 | 0.00 | 0.00 | 33 | 1010.7 |
| 20260506105546 | 60 | 247 | 1.0 | 2.0 | 0.00 | 0.00 | 0.00 | 33 | 1010.6 |
| 20260506105045 | 60 | 247 | 1.0 | 2.0 | 0.00 | 0.00 | 0.00 | 34 | 1010.7 |
| 20260506104545 | 60 | 247 | 0.0 | 2.0 | 0.00 | 0.00 | 0.00 | 33 | 1010.7 |
| 20260506104045 | 60 | 247 | 0.0 | 2.0 | 0.00 | 0.00 | 0.00 | 34 | 1010.6 |
| 20260506103547 | 60 | 247 | 0.0 | 1.0 | 0.00 | 0.00 | 0.00 | 34 | 1010.6 |
| 20260506103047 | 60 | 247 | 0.0 | 0.0 | 0.00 | 0.00 | 0.00 | 34 | 1010.5 |
| 20260506102543 | 60 | 247 | 0.0 | 0.0 | 0.00 | 0.00 | 0.00 | 34 | 1010.4 |
| 20260506102043 | 60 | 247 | 0.0 | 0.0 | 0.00 | 0.00 | 0.00 | 34 | 1010.3 |
| 20260506101543 | 60 | 247 | 0.0 | 0.0 | 0.00 | 0.00 | 0.00 | 34 | 1010.3 |
| 20260506101045 | 60 | 247 | 0.0 | 2.0 | 0.00 | 0.00 | 0.00 | 34 | 1010.2 |
| 20260506100541 | 60 | 247 | 0.0 | 2.0 | 0.00 | 0.00 | 0.00 | 34 | 1010.2 |
| 20260506100045 | 60 | 247 | 0.0 | 1.0 | 0.00 | 0.00 | 0.00 | 35 | 1010.2 |
| 20260506095543 | 60 | 247 | 0.0 | 2.0 | 0.00 | 0.00 | 0.00 | 35 | 1010.0 |
| 20260506095039 | 60 | 247 | 0.0 | 2.0 | 0.00 | 0.00 | 0.00 | 35 | 1010.0 |
| 20260506094548 | 60 | 247 | 0.0 | 2.0 | 0.00 | 0.00 | 0.00 | 35 | 1009.9 |
| 20260506094038 | 60 | 247 | 0.0 | 2.0 | 0.00 | 0.00 | 0.00 | 34 | 1009.9 |
| 20260506093537 | 60 | 247 | 0.0 | 2.0 | 0.00 | 0.00 | 0.00 | 35 | 1009.9 |
| 20260506093037 | 60 | 247 | 0.0 | 2.0 | 0.00 | 0.00 | 0.00 | 34 | 1009.9 |
| 20260506092536 | 60 | 247 | 0.0 | 2.0 | 0.00 | 0.00 | 0.00 | 34 | 1009.9 |
| 20260506092035 | 60 | 247 | 0.0 | 2.0 | 0.00 | 0.00 | 0.00 | 33 | 1009.9 |
| 20260506091534 | 61 | 247 | 0.0 | 1.0 | 0.00 | 0.00 | 0.00 | 32 | 1009.8 |
| 20260506091035 | 61 | 247 | 0.0 | 1.0 | 0.00 | 0.00 | 0.00 | 32 | 1009.8 |
| 20260506090533 | 61 | 247 | 0.0 | 1.0 | 0.00 | 0.00 | 0.00 | 32 | 1009.8 |
| 20260506090033 | 61 | 247 | 0.0 | 2.0 | 0.00 | 0.00 | 0.00 | 32 | 1009.7 |
| 20260506085531 | 61 | 247 | 0.0 | 2.0 | 0.00 | 0.00 | 0.00 | 32 | 1009.7 |
| 20260506085032 | 61 | 247 | 0.0 | 2.0 | 0.00 | 0.00 | 0.00 | 32 | 1009.7 |
| 20260506084531 | 61 | 247 | 0.0 | 3.0 | 0.00 | 0.00 | 0.00 | 32 | 1009.8 |
| 20260506084031 | 61 | 247 | 0.0 | 4.0 | 0.00 | 0.00 | 0.00 | 32 | 1009.8 |
| 20260506083531 | 62 | 247 | 1.0 | 4.0 | 0.00 | 0.00 | 0.00 | 32 | 1009.7 |
| 20260506083030 | 61 | 247 | 0.0 | 2.0 | 0.00 | 0.00 | 0.00 | 32 | 1009.7 |
| 20260506082531 | 62 | 247 | 0.0 | 2.0 | 0.00 | 0.00 | 0.00 | 32 | 1009.7 |
| 20260506082031 | 62 | 247 | 0.0 | 1.0 | 0.00 | 0.00 | 0.00 | 32 | 1009.7 |
| 20260506081530 | 62 | 247 | 0.0 | 1.0 | 0.00 | 0.00 | 0.00 | 31 | 1009.8 |
| 20260506081030 | 62 | 247 | 0.0 | 1.0 | 0.00 | 0.00 | 0.00 | 31 | 1009.8 |
| 20260506080530 | 62 | 247 | 0.0 | 1.0 | 0.00 | 0.00 | 0.00 | 31 | 1009.7 |
| 20260506073526 | 61 | 247 | 0.0 | 1.0 | 0.00 | 0.00 | 0.00 | 32 | 1009.8 |
| 20260506073026 | 61 | 247 | 0.0 | 1.0 | 0.00 | 0.00 | 0.00 | 32 | 1009.8 |
| 20260506072526 | 61 | 247 | 0.0 | 2.0 | 0.00 | 0.00 | 0.00 | 32 | 1009.8 |
| 20260506072024 | 61 | 247 | 0.0 | 2.0 | 0.00 | 0.00 | 0.00 | 32 | 1009.7 |
| 20260506071530 | 61 | 247 | 0.0 | 1.0 | 0.00 | 0.00 | 0.00 | 32 | 1009.7 |
| 20260506071025 | 61 | 247 | 0.0 | 2.0 | 0.00 | 0.00 | 0.00 | 32 | 1009.7 |
| 20260506070524 | 61 | 247 | 0.0 | 3.0 | 0.00 | 0.00 | 0.00 | 32 | 1009.7 |
| 20260506062020 | 64 | 247 | 0.0 | 1.0 | 0.00 | 0.00 | 0.00 | 30 | 1009.5 |
| 20260506061526 | 64 | 247 | 0.0 | 3.0 | 0.00 | 0.00 | 0.00 | 29 | 1009.3 |
| 20260506061019 | 64 | 247 | 0.0 | 3.0 | 0.00 | 0.00 | 0.00 | 29 | 1009.3 |
| 20260506060519 | 64 | 247 | 0.0 | 5.0 | 0.00 | 0.00 | 0.00 | 30 | 1009.1 |
| 20260506051013 | 63 | 246 | 0.0 | 2.0 | 0.00 | 0.00 | 0.00 | 32 | 1008.7 |
| 20260506050516 | 63 | 246 | 0.0 | 3.0 | 0.00 | 0.00 | 0.00 | 32 | 1008.6 |
| 20260506045010 | 63 | 246 | 0.0 | 2.0 | 0.00 | 0.00 | 0.00 | 32 | 1008.3 |
| 20260506044510 | 63 | 246 | 0.0 | 3.0 | 0.00 | 0.00 | 0.00 | 32 | 1008.3 |
| 20260506044011 | 64 | 246 | 0.0 | 4.0 | 0.00 | 0.00 | 0.00 | 32 | 1008.2 |
| 20260506043508 | 64 | 246 | 1.0 | 5.0 | 0.00 | 0.00 | 0.00 | 32 | 1008.2 |
| 20260506043008 | 64 | 245 | 0.0 | 5.0 | 0.00 | 0.00 | 0.00 | 32 | 1008.2 |
| 20260506042510 | 64 | 242 | 1.0 | 4.0 | 0.00 | 0.00 | 0.00 | 32 | 1008.0 |
| 20260506042007 | 64 | 241 | 1.0 | 4.0 | 0.00 | 0.00 | 0.00 | 32 | 1008.0 |
| 20260506041506 | 64 | 241 | 0.0 | 4.0 | 0.00 | 0.00 | 0.00 | 32 | 1008.0 |
| 20260506041009 | 64 | 241 | 0.0 | 5.0 | 0.00 | 0.00 | 0.00 | 32 | 1007.9 |
| 20260506040505 | 64 | 240 | 0.0 | 4.0 | 0.00 | 0.00 | 0.00 | 32 | 1007.9 |
| 20260506040010 | 64 | 240 | 1.0 | 4.0 | 0.00 | 0.00 | 0.00 | 32 | 1007.8 |
| 20260506035504 | 64 | 240 | 1.0 | 4.0 | 0.00 | 0.00 | 0.00 | 32 | 1007.7 |
| 20260506035004 | 64 | 239 | 1.0 | 8.0 | 0.00 | 0.00 | 0.00 | 32 | 1007.6 |
| 20260506034504 | 64 | 238 | 1.0 | 8.0 | 0.00 | 0.00 | 0.00 | 32 | 1007.6 |
| 20260506034004 | 65 | 242 | 2.0 | 5.0 | 0.00 | 0.00 | 0.00 | 32 | 1007.5 |
| 20260506033503 | 65 | 240 | 3.0 | 7.0 | 0.00 | 0.00 | 0.00 | 32 | 1007.4 |
| 20260506033004 | 65 | 248 | 1.0 | 5.0 | 0.00 | 0.00 | 0.00 | 32 | 1007.3 |
| 20260506032503 | 65 | 245 | 2.0 | 8.0 | 0.00 | 0.00 | 0.00 | 32 | 1007.3 |
| 20260506032003 | 65 | 245 | 3.0 | 8.0 | 0.00 | 0.00 | 0.00 | 32 | 1007.2 |
| 20260506031508 | 65 | 249 | 2.0 | 8.0 | 0.00 | 0.00 | 0.00 | 32 | 1007.1 |
| 20260506031003 | 65 | 259 | 2.0 | 8.0 | 0.00 | 0.00 | 0.00 | 31 | 1007.0 |
| 20260506030502 | 65 | 256 | 2.0 | 7.0 | 0.00 | 0.00 | 0.00 | 31 | 1006.9 |
| 20260506030003 | 66 | 256 | 3.0 | 7.0 | 0.00 | 0.00 | 0.00 | 31 | 1006.8 |
| 20260506025504 | 66 | 258 | 1.0 | 6.0 | 0.00 | 0.00 | 0.00 | 31 | 1006.7 |
| 20260506025002 | 66 | 258 | 1.0 | 6.0 | 0.00 | 0.00 | 0.00 | 31 | 1006.7 |
| 20260506024505 | 66 | 259 | 2.0 | 7.0 | 0.00 | 0.00 | 0.00 | 31 | 1006.7 |
| 20260506024001 | 66 | 260 | 3.0 | 9.0 | 0.00 | 0.00 | 0.00 | 31 | 1006.6 |
| 20260506023502 | 66 | 263 | 3.0 | 9.0 | 0.00 | 0.00 | 0.00 | 31 | 1006.6 |
| 20260506023002 | 66 | 263 | 3.0 | 9.0 | 0.00 | 0.00 | 0.00 | 31 | 1006.5 |
| 20260506022501 | 66 | 251 | 3.0 | 7.0 | 0.00 | 0.00 | 0.00 | 30 | 1006.5 |
| 20260506022001 | 67 | 260 | 1.0 | 8.0 | 0.00 | 0.00 | 0.00 | 30 | 1006.4 |
| 20260506021601 | 67 | 256 | 2.0 | 8.0 | 0.00 | 0.00 | 0.00 | 30 | 1006.4 |
| 20260506021501 | 67 | 257 | 2.0 | 8.0 | 0.00 | 0.00 | 0.00 | 30 | 1006.5 |
| 20260506021100 | 67 | 251 | 2.0 | 7.0 | 0.00 | 0.00 | 0.00 | 30 | 1006.4 |
| 20260506020600 | 67 | 255 | 1.0 | 7.0 | 0.00 | 0.00 | 0.00 | 29 | 1006.3 |
| 20260506020001 | 67 | 245 | 2.0 | 7.0 | 0.00 | 0.00 | 0.00 | 29 | 1006.2 |
| 20260506015600 | 67 | 231 | 1.0 | 6.0 | 0.00 | 0.00 | 0.00 | 29 | 1006.2 |
| 20260506015203 | 67 | 225 | 2.0 | 7.0 | 0.00 | 0.00 | 0.00 | 29 | 1006.2 |
| 20260506014600 | 67 | 219 | 3.0 | 7.0 | 0.00 | 0.00 | 0.00 | 29 | 1006.2 |
| 20260506014101 | 68 | 190 | 2.0 | 6.0 | 0.00 | 0.00 | 0.00 | 29 | 1006.1 |
| 20260506013559 | 69 | 228 | 1.0 | 5.0 | 0.00 | 0.00 | 0.00 | 28 | 1006.1 |
| 20260506013059 | 69 | 245 | 1.0 | 5.0 | 0.00 | 0.00 | 0.00 | 27 | 1006.1 |
| 20260506012559 | 70 | 248 | 2.0 | 5.0 | 0.00 | 0.00 | 0.00 | 27 | 1006.2 |
| 20260506012058 | 69 | 218 | 1.0 | 4.0 | 0.00 | 0.00 | 0.00 | 26 | 1006.2 |
| 20260506011607 | 69 | 212 | 0.0 | 6.0 | 0.00 | 0.00 | 0.00 | 26 | 1006.1 |
| 20260506011058 | 70 | 203 | 2.0 | 6.0 | 0.00 | 0.00 | 0.00 | 25 | 1006.0 |
| 20260506010601 | 69 | 215 | 0.0 | 5.0 | 0.00 | 0.00 | 0.00 | 25 | 1006.1 |